TimeMDT,TemperatureF,Dew PointF,Humidity,Sea Level PressureIn,VisibilityMPH,Wind Direction,Wind SpeedMPH,Gust SpeedMPH,PrecipitationIn,Events,Conditions,WindDirDegrees,DateUTC
12:53 AM,28.0,25.0,88,30.22,9.0,Calm,Calm,-,N/A,,Overcast,0,2012-10-27 06:53:00
1:53 AM,28.9,25.0,85,30.19,10.0,Calm,Calm,-,N/A,,Overcast,0,2012-10-27 07:53:00
2:53 AM,30.0,25.0,82,30.19,10.0,Calm,Calm,-,N/A,,Scattered Clouds,0,2012-10-27 08:53:00
3:53 AM,30.0,25.0,82,30.18,10.0,Calm,Calm,-,N/A,,Overcast,0,2012-10-27 09:53:00
4:53 AM,30.0,25.0,82,30.17,10.0,Calm,Calm,-,N/A,,Overcast,0,2012-10-27 10:53:00
5:53 AM,30.0,25.0,82,30.17,10.0,Calm,Calm,-,N/A,,Overcast,0,2012-10-27 11:53:00
6:53 AM,30.0,26.1,85,30.18,10.0,WNW,3.5,-,N/A,,Overcast,300,2012-10-27 12:53:00
7:53 AM,30.0,26.1,85,30.18,3.0,Calm,Calm,-,0.00,Snow,Light Snow,0,2012-10-27 13:53:00
8:07 AM,30.2,26.6,86,30.04,2.0,Calm,Calm,-,0.01,Snow,Light Snow,0,2012-10-27 14:07:00
8:09 AM,28.4,26.6,93,30.04,1.8,Calm,Calm,-,0.01,Snow,Light Snow,0,2012-10-27 14:09:00
8:19 AM,28.4,26.6,93,30.04,1.0,Calm,Calm,-,0.01,Snow,Light Snow,0,2012-10-27 14:19:00
8:26 AM,28.4,26.6,93,30.04,0.8,Calm,Calm,-,0.01,Snow,Light Snow,0,2012-10-27 14:26:00
8:46 AM,28.4,26.6,93,30.04,1.0,Calm,Calm,-,0.02,Snow,Light Snow,0,2012-10-27 14:46:00
8:53 AM,28.9,27.0,92,30.19,1.0,Calm,Calm,-,0.02,Snow,Light Snow,0,2012-10-27 14:53:00
9:38 AM,30.2,28.4,93,30.04,0.8,NW,3.5,-,0.01,Snow,Light Snow,320,2012-10-27 15:38:00
9:53 AM,30.0,28.0,92,30.19,1.2,Calm,Calm,-,0.01,Snow,Light Snow,0,2012-10-27 15:53:00
10:01 AM,30.2,28.4,93,30.03,2.0,Calm,Calm,-,0.00,Snow,Light Snow,0,2012-10-27 16:01:00
10:13 AM,30.2,28.4,93,30.04,4.0,Calm,Calm,-,0.01,Snow,Light Snow,0,2012-10-27 16:13:00
10:28 AM,30.2,28.4,93,30.03,7.0,Calm,Calm,-,0.01,,Overcast,0,2012-10-27 16:28:00
10:53 AM,33.1,28.9,85,30.17,10.0,Calm,Calm,-,0.01,,Overcast,0,2012-10-27 16:53:00
11:50 AM,33.8,30.2,87,30.02,10.0,Calm,Calm,-,N/A,,Overcast,0,2012-10-27 17:50:00
11:53 AM,34.0,30.0,85,30.17,10.0,Calm,Calm,-,N/A,,Overcast,0,2012-10-27 17:53:00
12:53 PM,37.9,32.0,79,30.15,10.0,Calm,Calm,-,N/A,,Overcast,0,2012-10-27 18:53:00
1:53 PM,39.0,33.1,79,30.14,10.0,SE,5.8,-,N/A,,Overcast,140,2012-10-27 19:53:00
2:53 PM,41.0,30.9,67,30.11,10.0,East,5.8,-,N/A,,Mostly Cloudy,100,2012-10-27 20:53:00
3:53 PM,42.8,30.2,61,29.99,10.0,East,4.6,-,N/A,,Overcast,80,2012-10-27 21:53:00
4:53 PM,41.0,30.0,65,30.11,10.0,ESE,3.5,-,N/A,,Overcast,110,2012-10-27 22:53:00
5:53 PM,41.0,30.0,65,30.11,10.0,Calm,Calm,-,N/A,,Overcast,0,2012-10-27 23:53:00
6:53 PM,39.0,33.1,79,30.12,10.0,Calm,Calm,-,N/A,,Overcast,0,2012-10-28 00:53:00
7:53 PM,39.0,34.0,82,30.12,10.0,Calm,Calm,-,N/A,,Overcast,0,2012-10-28 01:53:00
8:53 PM,37.0,33.1,86,30.13,10.0,NNE,3.5,-,N/A,,Overcast,20,2012-10-28 02:53:00
9:53 PM,35.6,32.0,87,29.97,10.0,Calm,Calm,-,N/A,,Scattered Clouds,0,2012-10-28 03:53:00
10:53 PM,36.0,32.0,86,30.08,10.0,Calm,Calm,-,N/A,,Overcast,0,2012-10-28 04:53:00
11:53 PM,35.1,32.0,89,30.06,10.0,Calm,Calm,-,N/A,,Scattered Clouds,0,2012-10-28 05:53:00